Weather History for KFXE - September, 2012

Change the Weather History Date:

Monday, September 10, 2012

  Actual Average (KFLL) Record (KFLL)
Temperature  
Mean Temperature 84 °F 83 °F  
Max Temperature 91 °F 89 °F 96 °F (1954)
Min Temperature 79 °F 78 °F 67 °F (1950)
Degree Days  
Heating Degree Days 0 0  
Month to date heating degree days 0  
Since 1 July heating degree days 0  
Cooling Degree Days 20 18  
Month to date cooling degree days 186  
Year to date cooling degree days 3352  
Growing Degree Days 34 (Base 50)    
Moisture  
Dew Point 75 °F    
Average Humidity 77    
Maximum Humidity 94    
Minimum Humidity 57    
Precipitation  
Precipitation 0.00 in 0.26 in 2.99 in (1996)
Month to date precipitation 2.81  
Year to date precipitation 43.88  
Snow  
Snow 0.00 in - - ()
Month to date snowfall  
Since 1 July snowfall  
Since 1 September snowfall  
Snow Depth -    
Sea Level Pressure  
Sea Level Pressure 29.99 in    
Wind  
Wind Speed 6 mph (West)    
Max Wind Speed 14 mph    
Max Gust Speed 20 mph    
Visibility 10 miles    
Events      
T = Trace of Precipitation, MM = Missing Value Source: NWS Daily Summary

Daily Weather History Graph

Daily Weather History Graph

Search for Another Location

Airport or City:

Trip Planner

Search our weather history database for the weather conditions in past years. The results will help you decide how hot, cold, wet, or windy it might be!

Date:

Astronomy

Sep. 10, 2012 Rise Set
Actual Time 7:04 AM EDT 7:29 PM EDT
Civil Twilight 6:41 AM EDT 7:53 PM EDT
Nautical Twilight 6:14 AM EDT 8:20 PM EDT
Astronomical Twilight 5:46 AM EDT 8:47 PM EDT
Moon 1:48 AM EDT (9/10) 3:36 PM EDT (9/10)
Length of Visible Light 13h 11m
Length of Day
12h 25m
Waning Crescent, 30% of the Moon is Illuminated
Sep 10
Waning Crescent
Sep 15
New
Sep 22
First Quarter
Sep 29
Full
Oct 8
Last Quarter

Hourly Weather History & Observations

Time (EDT) Temp. Heat Index Dew Point Humidity Pressure Visibility Wind Dir Wind Speed Gust Speed Precip Events Conditions
12:53 AM 82.0 °F 89.4 °F 75.9 °F 82% 30.00 in 10.0 mi SSW 4.6 mph - N/A   Partly Cloudy
1:53 AM 80.1 °F 85.4 °F 75.9 °F 87% 29.98 in 10.0 mi WSW 4.6 mph - N/A   Clear
2:53 AM 79.0 °F - 75.9 °F 90% 29.96 in 10.0 mi Calm Calm - N/A   Clear
3:53 AM 80.1 °F 85.8 °F 77.0 °F 90% 29.96 in 10.0 mi SW 4.6 mph - N/A   Clear
4:53 AM 79.0 °F - 77.0 °F 94% 29.95 in 10.0 mi West 4.6 mph - N/A   Clear
5:53 AM 79.0 °F - 77.0 °F 94% 29.97 in 10.0 mi Calm Calm - N/A   Clear
6:53 AM 79.0 °F - 77.0 °F 94% 29.99 in 10.0 mi WSW 4.6 mph - N/A   Clear
7:53 AM 81.0 °F 87.9 °F 77.0 °F 88% 30.01 in 10.0 mi SW 4.6 mph - N/A   Clear
8:53 AM 82.9 °F 91.8 °F 77.0 °F 82% 30.01 in 10.0 mi West 10.4 mph - N/A   Scattered Clouds
9:53 AM 86.0 °F 95.1 °F 75.0 °F 70% 30.01 in 10.0 mi WSW 8.1 mph - N/A   Scattered Clouds
10:53 AM 88.0 °F 97.5 °F 75.0 °F 65% 30.02 in 10.0 mi West 9.2 mph 18.4 mph N/A   Scattered Clouds
11:53 AM 90.0 °F 97.9 °F 73.0 °F 57% 30.01 in 10.0 mi WSW 12.7 mph - N/A   Scattered Clouds
12:53 PM 82.9 °F 90.2 °F 75.0 °F 77% 30.02 in 10.0 mi NW 9.2 mph 18.4 mph 0.00 in   Mostly Cloudy
1:53 PM 87.1 °F 97.3 °F 75.9 °F 69% 30.01 in 10.0 mi WNW 10.4 mph 16.1 mph 0.00 in   Mostly Cloudy
2:53 PM 89.1 °F 97.0 °F 73.0 °F 59% 29.98 in 10.0 mi West 13.8 mph 19.6 mph N/A   Mostly Cloudy
3:53 PM 86.0 °F 95.1 °F 75.0 °F 70% 29.97 in 10.0 mi West 11.5 mph - N/A   Scattered Clouds
4:53 PM 88.0 °F 97.5 °F 75.0 °F 65% 29.97 in 10.0 mi WNW 8.1 mph - 0.00 in   Scattered Clouds
5:53 PM 86.0 °F 96.0 °F 75.9 °F 72% 29.99 in 10.0 mi West 8.1 mph - N/A   Scattered Clouds
6:53 PM 84.9 °F 91.4 °F 73.0 °F 67% 30.00 in 10.0 mi WNW 8.1 mph - N/A   Scattered Clouds
7:53 PM 84.0 °F 90.2 °F 73.0 °F 69% 30.00 in 10.0 mi NW 4.6 mph - N/A   Scattered Clouds
8:53 PM 84.0 °F 91.2 °F 73.9 °F 72% 30.01 in 10.0 mi WNW 3.5 mph - N/A   Clear
9:53 PM 82.0 °F 88.6 °F 75.0 °F 79% 30.01 in 10.0 mi West 5.8 mph - N/A   Scattered Clouds
10:53 PM 81.0 °F 87.3 °F 75.9 °F 85% 30.02 in 10.0 mi Calm Calm - N/A   Scattered Clouds
11:53 PM 82.0 °F 89.4 °F 75.9 °F 82% 30.02 in 10.0 mi North 3.5 mph - N/A   Scattered Clouds